This is the latest recevied weather packets stored in our database for station/object TA3MHA. If no packets are shown the sender has not sent any weather packets the latest 10 day(s).
| Time | Temp. | Humidity | Pressure | Rain* | Wind** | Luminosity | Snow |
|---|---|---|---|---|---|---|---|
| 1777267500 | 12.78° C | 76% | - | 0 mm | - | 261 W/m² | - |
| 1777267201 | 12.78° C | 74% | - | 0 mm | - | 239 W/m² | - |
| 1777266901 | 12.22° C | 76% | - | 0 mm | - | 225 W/m² | - |
| 1777266601 | 12.22° C | 78% | - | 0 mm | - | 212 W/m² | - |
| 1777266301 | 11.67° C | 79% | - | 0 mm | - | 203 W/m² | - |
| 1777266001 | 11.67° C | 79% | - | 0 mm | - | 104 W/m² | - |
| 1777265701 | 11.67° C | 80% | - | 0 mm | - | 128 W/m² | - |
| 1777265401 | 11.11° C | 81% | - | 0 mm | - | 153 W/m² | - |
| 1777265101 | 11.11° C | 81% | - | 0 mm | - | 89 W/m² | - |
| 1777264800 | 11.11° C | 82% | - | 0 mm | - | 112 W/m² | - |
| 1777264500 | 11.11° C | 83% | - | 0 mm | - | 89 W/m² | - |
| 1777264201 | 11.11° C | 83% | - | 0 mm | - | 64 W/m² | - |
| 1777263900 | 10.56° C | 84% | - | 0 mm | - | 60 W/m² | - |
| 1777263600 | 10.56° C | 84% | - | 0 mm | - | 60 W/m² | - |
| 1777263300 | 11.11° C | 83% | - | 0 mm | - | 47 W/m² | - |
| 1777263001 | 11.11° C | 83% | - | 0 mm | - | 46 W/m² | - |
| 1777262701 | 11.11° C | 83% | - | 0 mm | - | 43 W/m² | - |
| 1777262401 | 10.56° C | 83% | - | 0 mm | - | 39 W/m² | - |
| 1777262101 | 10.56° C | 83% | - | 0 mm | - | 38 W/m² | - |
| 1777261800 | 10.56° C | 84% | - | 0 mm | - | 32 W/m² | - |
| 1777261500 | 10.56° C | 84% | - | 0 mm | - | 25 W/m² | - |
| 1777261201 | 10.56° C | 84% | - | 0 mm | - | 20 W/m² | - |
| 1777260901 | 10.56° C | 84% | - | 0 mm | - | 14 W/m² | - |
| 1777260600 | 10.56° C | 84% | - | 0 mm | - | 9 W/m² | - |
| 1777260300 | 10.56° C | 83% | - | 0 mm | - | 6 W/m² | - |
* Rain latest hour (hover to see other rain measurements)
** Current wind speed in m/s (hover to see current wind gust speed)